Regional Weather Roundup
Issued by NWS Green Bay, WI

Home | Current Version | Previous Version | Graphics & Text | Print | Product List | Glossary Off
Versions: 1 2 3 4 5 6 7 8 9 10 11 12 13 14 15 16 17 18 19 20 21 22 23 24 25 26 27 28 29 30 31 32 33 34 35 36 37 38 39 40 41 42 43 44 45 46 47 48 49 50

000
ASUS43 KGRB 281811
RWRGRB

NORTH-CENTRAL AND NORTHEAST WISCONSIN REGIONAL WEATHER ROUNDUP
NATIONAL WEATHER SERVICE GREEN BAY WI
100 PM CDT WED JUN 28 2017

WIZ005-009-010>012-018-019-281900-
NORTH CENTRAL WISCONSIN

CITY           SKY/WX    TMP DP  RH WIND       PRES   REMARKS
IRONWOOD       LGT RAIN  62  58  86 S9G20     29.68F
MANITOWISH WTR LGT RAIN  61  61 100 S10       29.72F
ARBOR VITAE    LGT RAIN  62  59  91 S9        29.72F
EAGLE RIVER    CLOUDY    61  58  91 S3        29.75F
LAND O LAKES   CLOUDY    61  58  89 S6        29.77F
RHINELANDER    LGT RAIN  60  60 100 S12G20    29.76F FOG
PHILLIPS       LGT RAIN  61  61 100 S9        29.70F
ANTIGO         RAIN      60  58  96 SE13      29.78F
TOMAHAWK       NOT AVBL
MERRILL        LGT RAIN  60  60 100 SE6       29.76F
$$

WIZ013-073-281900-
NORTHEAST WISCONSIN

CITY           SKY/WX    TMP DP  RH WIND       PRES   REMARKS
IRON MOUNTAIN  CLOUDY    63  57  81 S9        29.78R
MARINETTE      LGT RAIN  64  59  82 S6        29.82R
OCONTO         CLOUDY    64  61  88 S6        29.81R
$$

WIZ017-030-035>037-045-281900-
CENTRAL WISCONSIN

CITY           SKY/WX    TMP DP  RH WIND       PRES   REMARKS
MEDFORD        RAIN      60  59  97 SE8       29.72F
WAUSAU         RAIN      61  60  97 SE7       29.74F FOG
MOSINEE        HVY RAIN  61  61 100 SE8       29.77F VSB 1
MARSHFIELD     LGT RAIN  63  60  90 CALM      29.73F FOG
WISC RAPIDS    LGT RAIN  64  63  96 S8        29.75F
STEVENS POINT  RAIN      60  60 100 S8        29.76F
WAUPACA        RAIN      66  64  94 S9        29.79S
SHAWANO        LGT RAIN  66  61  82 S5        29.79F
CLINTONVILLE   LGT RAIN  63  59  88 S6        29.78F
WAUTOMA        LGT RAIN  64  62  93 S14       29.77F
$$

WIZ038-039-048-051-281900-
FOX VALLEY

CITY           SKY/WX    TMP DP  RH WIND       PRES   REMARKS
NWS GREEN BAY  RAIN      66  63  90 S9G18     29.82R FOG
APPLETON       LGT RAIN  64  63  94 S14       29.79F
OSHKOSH        RAIN      63  60  90 S16G24    29.80F FOG
FOND DU LAC    RAIN      64  59  83 S14       29.83S
$$

WIZ022-050-052-281900-
EAST CENTRAL WISCONSIN

CITY           SKY/WX    TMP DP  RH WIND       PRES   REMARKS
EPHRAIM        MOCLDY    61  56  84 S12G21    29.83R
WASHINGTON ISL CLOUDY    61  56  84 S15G22    29.82S
STURGEON BAY   LGT RAIN  60  56  86 S10       29.84R
MANITOWOC      LGT RAIN  61  57  87 S14       29.86R
SHEBOYGAN      LGT RAIN  62  60  93 S13       29.86R
$$

LMZ563-521-522-541>543-281900-
LAKESHORE

STATION/POSITION TIME  TEMP    WIND        PRES    VSBY  WAVE
                       AIR SEA DIR/SP/G                  HT/PER
                 (UTC) (F)     (DEG/KT/KT) (MB)    (MI)  (FT/S)
SHEBOYGAN LKSHOR 1800   60     190/ 23/ 26 1011.0R
KEWAUNEE LKSHORE 1748   56     180/ 16/ 20 1010.3R
NORTHPORT PIER   1740   63     160/  9/ 21 1009.8F
N MID LAKE BUOY  1750   59 53  170/ 19/ 23 1010.5F         4/ 5
S GREEN BAY BUOY 1800   65     180/ 16/ 19 1009.4
SISTER BAY LKSHO 1723   63     180/ 20/ 25   N/A
CHAMBERS ISLAND  1740   63     160/  9/ 20 1009.5R
MENOMINEE LKSHOR 1748          190/  9/ 13 1009.2R
$$




USA.gov is the U.S. government's official web portal to all federal, state and local government web resources and services.